#timestamp,LO_Frequency,Hit,StdDev 
1635652815.6,286046999.4,N
1635652835.4,286046999.1,N
1635652855.3,286046998.1,N
1635652875.1,286046998.7,N
1635652895.8,286046998.4,N
1635652915.7,286046999.1,N
1635652935.5,286046999.4,N
1635652955.4,286047001.1,N
1635652975.2,286046997.1,N
1635652995.0,286046996.7,N
1635652995.9,286046996.7,N
1635653015.8,286046997.0,N
1635653035.6,286046996.8,N
1635653055.4,286046997.2,N
1635653075.3,286046997.3,N
1635653095.1,286046997.7,N
1635653115.9,286046997.3,N
1635653135.7,286046996.8,N
1635653155.5,286046996.8,N
1635653175.4,286046996.8,N
1635653195.2,286046997.1,N
1635653215.0,286046997.1,N
1635653215.9,286046997.1,N
1635653235.8,286046997.1,N
1635653255.6,286046997.0,N
1635653275.5,286046997.8,N
1635653295.3,286046997.9,N
1635653315.1,286046995.5,Y
1635653335.9,286046998.2,P
1635653355.7,286046998.7,P
1635653375.5,286046999.2,N
1635653395.4,286046996.5,Y
1635653415.2,286046998.4,P
1635653435.1,286046998.6,P
1635653436.0,286046998.6,P
1635653455.8,286046999.4,Y
1635653475.6,286046999.9,P
1635653495.5,286047001.8,N
1635653515.3,286047001.0,N
1635653535.2,286047000.9,N
1635653555.9,286047002.7,N
1635653575.7,286047002.7,N
1635653595.6,286047002.5,N
1635653615.4,286047000.1,N
1635653635.2,286047002.0,N
1635653655.1,286047000.1,N
1635653656.0,286047000.1,N
1635653675.8,286047002.1,N
1635653695.7,286047001.8,N
1635653715.5,286047002.5,N
1635653735.3,286047002.1,N
1635653755.2,286047004.4,Y
1635653775.0,286046999.8,P
1635653775.9,286046999.8,N
1635653795.7,286047002.2,P
1635653815.6,286047001.5,N
1635653835.4,286047000.1,N
1635653855.3,286047000.2,N
1635653875.1,286047002.4,N
1635653876.0,286047002.4,N
1635653895.8,286046999.7,N
1635653915.7,286047001.7,N
1635653935.5,286047001.7,N
1635653955.4,286047003.5,Y
1635653975.2,286047002.8,P
1635653995.0,286047002.2,N
1635653995.9,286047002.2,P
1635654015.8,286047002.7,Y
1635654035.6,286046998.4,P
1635654055.4,286046998.3,N
1635654075.3,286046998.1,N
1635654095.1,286046998.2,N
1635654115.9,286047000.3,N
1635654135.7,286047000.9,N
1635654155.5,286047000.3,N
1635654175.4,286047001.0,N
1635654195.2,286047002.3,N
1635654215.0,286047000.0,N
1635654215.9,286047000.0,N
1635654235.8,286047001.0,N
1635654255.6,286046998.1,N
1635654275.5,286047000.6,N
1635654295.3,286046999.7,N
1635654315.1,286047002.3,N
1635654335.9,286047000.4,N
1635654355.7,286047000.6,N
1635654375.5,286047000.4,N
1635654395.4,286046999.8,N
1635654415.2,286047000.3,N
1635654435.1,286047002.2,N
1635654436.0,286047002.2,N
1635654455.8,286047001.5,N
1635654475.6,286047000.8,N
1635654495.5,286047002.4,N
1635654515.3,286047002.3,N
1635654535.1,286047000.5,N
1635654555.9,286046999.8,N
1635654575.7,286047000.1,N
1635654595.6,286047000.5,N
1635654615.4,286047000.2,N
1635654635.2,286047001.6,N
1635654655.1,286047001.6,N
1635654656.0,286047001.6,N
1635654675.8,286047001.4,N
1635654695.7,286047004.1,Y
1635654715.5,286047002.1,P
1635654735.3,286047001.5,N
1635654755.2,286047002.3,P
1635654775.0,286046999.8,N
1635654775.9,286046999.8,N
1635654795.8,286047001.4,N
1635654815.6,286047001.7,N
1635654835.4,286047004.0,Y
1635654855.3,286047000.2,P
1635654875.1,286047000.8,N
1635654895.8,286047000.6,N
1635654915.7,286047000.9,N
1635654935.5,286047001.0,N
1635654955.4,286046998.1,Y
1635654975.2,286046998.2,P
1635654995.0,286047000.3,N
1635654995.9,286047000.3,N
1635655015.8,286047000.2,N
1635655035.6,286047003.9,Y
1635655055.5,286047004.1,P
1635655075.3,286046999.7,N
1635655095.1,286047002.1,N
1635655115.9,286047001.7,N
1635655135.7,286047001.6,N
1635655155.6,286047002.2,N
1635655175.4,286047003.6,N
1635655195.2,286047003.7,N
1635655215.1,286047001.5,N
1635655216.0,286047001.5,N
1635655235.8,286047002.3,N
1635655255.6,286047001.9,N
1635655275.5,286047002.0,N
1635655295.3,286047004.3,Y
1635655315.2,286047002.4,P
1635655335.9,286047001.9,P
1635655355.7,286047002.2,P
1635655375.6,286047002.3,Y
1635655395.4,286047001.2,P
1635655415.2,286047000.8,N
1635655435.1,286047001.0,N
1635655436.0,286047001.0,N
1635655455.8,286046998.1,Y
1635655475.7,286046998.1,P
1635655495.5,286046998.6,N
1635655515.3,286047000.9,N
1635655535.2,286047000.7,N
1635655555.0,286047001.0,N
1635655555.9,286047001.0,N
1635655575.8,286047000.7,N
1635655595.6,286047000.4,N
1635655615.4,286047000.6,N
1635655635.3,286047001.1,N
1635655655.1,286047000.9,N
1635655675.8,286047000.6,N
1635655695.7,286046999.7,N
1635655715.5,286047002.0,N
1635655735.3,286047002.0,N
1635655755.2,286047001.9,N
1635655775.0,286047004.3,Y
1635655775.9,286047004.3,P
1635655795.8,286047002.8,N
1635655815.6,286047002.8,N
1635655835.4,286047001.9,N
1635655855.3,286047001.3,N
1635655875.1,286047001.4,N
1635655895.9,286047001.7,N
1635655915.7,286047001.8,N
1635655935.5,286047001.8,N
1635655955.4,286047001.9,N
1635655975.2,286047004.3,Y
1635655995.0,286047002.0,P
1635655995.9,286047002.0,P
1635656015.8,286046999.8,P
1635656035.6,286047002.5,N
1635656055.5,286047002.6,N
1635656075.3,286047001.7,N
1635656095.1,286047002.2,N
1635656115.9,286046999.7,N
1635656135.7,286047001.3,N
1635656155.5,286047004.4,Y
1635656175.4,286047002.8,P
1635656195.2,286047002.4,P
1635656215.1,286047002.7,P
1635656216.0,286047002.7,Y
1635656235.8,286047000.7,P
1635656255.6,286047000.8,N
1635656275.5,286047000.5,N
1635656295.3,286047000.3,N
1635656315.2,286047000.5,N
1635656335.9,286046998.7,N
1635656355.7,286047000.9,N
1635656375.6,286047000.4,N
1635656395.4,286047000.2,N
